Location: Columbus AFB Auxilary Field
(32.9346°N, 88.5717°W)
Time: 09:57:34
(UTC-06:00)

N. Korean satellite - Visible Passes

Search period start: 10 December 2018 00:00
Search period end: 20 December 2018 00:00
Orbit: 456 x 511 km, 97.2° (Epoch: 09 December)

Date Brightness Start Highest point End Pass type
(mag) Time Alt. Az. Time Alt. Az. Time Alt. Az.
11 Dec 6.7 06:05:35 10° NNE 06:09:09 82° E 06:12:46 10° S visible
11 Dec 9.2 18:11:13 10° SSW 18:13:56 22° W 18:16:39 10° NW visible
12 Dec 8.4 05:41:18 10° NNE 05:44:35 34° E 05:47:55 10° SSE visible
12 Dec 7.4 17:45:58 10° S 17:49:19 51° W 17:52:40 10° NNW visible
13 Dec 9.8 05:17:40 10° NE 05:19:57 16° E 05:22:15 10° SE visible
13 Dec 6.4 17:21:23 10° SSE 17:24:46 63° ENE 17:28:10 10° N visible
14 Dec 10.0 18:32:33 10° WSW 18:33:45 11° W 18:34:58 10° WNW visible
15 Dec 6.9 06:00:45 10° NNE 06:04:20 70° E 06:07:58 10° S visible
15 Dec 8.9 18:06:11 10° SSW 18:09:04 25° W 18:11:57 10° NW visible
16 Dec 8.7 05:36:32 10° NE 05:39:45 30° E 05:42:59 10° SSE visible
16 Dec 7.0 17:41:03 10° S 17:44:26 61° W 17:47:50 10° NNW visible
17 Dec 9.9 05:13:05 10° ENE 05:15:05 14° E 05:17:06 10° SE visible
17 Dec 6.6 17:16:34 10° SSE 17:19:54 52° ENE 17:23:14 10° N visible
18 Dec 6.7 06:20:28 10° N 06:24:01 57° WNW 06:27:38 10° SSW visible
18 Dec 9.8 18:27:06 10° SW 18:28:50 13° W 18:30:35 10° WNW visible
19 Dec 7.3 05:55:53 10° NNE 05:59:29 59° E 06:03:07 10° S visible
19 Dec 8.6 18:01:08 10° SSW 18:04:08 29° W 18:07:11 10° NW visible
